Time,TemperatureF,DewpointF,PressureIn,WindDirection,WindDirectionDegrees,WindSpeedMPH,WindSpeedGustMPH,Humidity,HourlyPrecipIn,Conditions,Clouds,dailyrainin,SoftwareType,DateUTC
2013-11-24 00:12:00,36.0,28.0,30.19,NNE,30,1.0,7.0,72,0.00,,,0.06,,2013-11-24 06:12:00,
2013-11-24 00:21:00,36.0,28.0,30.20,NNW,338,0.0,6.0,71,0.00,,,0.06,,2013-11-24 06:21:00,
2013-11-24 00:42:00,36.0,28.0,30.19,NNE,28,1.0,5.0,71,0.00,,,0.06,,2013-11-24 06:42:00,
2013-11-24 00:52:00,35.0,27.0,30.19,NE,38,2.0,6.0,71,0.00,,,0.06,,2013-11-24 06:52:00,
2013-11-24 01:11:00,35.0,27.0,30.19,NNE,27,1.0,6.0,71,0.00,,,0.06,,2013-11-24 07:11:00,
2013-11-24 01:22:00,35.0,27.0,30.18,NW,315,1.0,6.0,71,0.00,,,0.06,,2013-11-24 07:22:00,
2013-11-24 01:42:00,35.0,27.0,30.19,North,351,0.0,5.0,71,0.00,,,0.06,,2013-11-24 07:42:00,
2013-11-24 01:52:00,35.0,27.0,30.21,NNW,346,1.0,7.0,72,0.00,,,0.06,,2013-11-24 07:52:00,
2013-11-24 02:22:00,35.0,27.0,30.22,NNW,342,1.0,7.0,73,0.00,,,0.06,,2013-11-24 08:22:00,
2013-11-24 02:42:00,34.0,27.0,30.22,NW,324,2.0,6.0,74,0.00,,,0.06,,2013-11-24 08:42:00,
2013-11-24 02:53:00,34.0,27.0,30.22,NNW,346,1.0,7.0,74,0.00,,,0.06,,2013-11-24 08:53:00,
2013-11-24 03:12:00,34.0,27.0,30.23,WNW,295,1.0,8.0,75,0.00,,,0.06,,2013-11-24 09:12:00,
2013-11-24 03:21:00,34.0,27.0,30.23,NNW,329,0.0,3.0,76,0.00,,,0.06,,2013-11-24 09:21:00,
2013-11-24 03:43:00,34.0,28.0,30.22,North,355,1.0,8.0,78,0.00,,,0.06,,2013-11-24 09:43:00,
2013-11-24 03:53:00,34.0,28.0,30.22,NNW,344,0.0,6.0,79,0.00,,,0.06,,2013-11-24 09:53:00,
2013-11-24 04:23:00,34.0,28.0,30.21,NW,324,2.0,9.0,78,0.00,,,0.06,,2013-11-24 10:23:00,
2013-11-24 04:43:00,34.0,28.0,30.21,NW,317,2.0,7.0,78,0.00,,,0.06,,2013-11-24 10:43:00,
2013-11-24 04:53:00,34.0,28.0,30.22,North,360,2.0,8.0,77,0.00,,,0.06,,2013-11-24 10:53:00,
2013-11-24 05:22:00,34.0,28.0,30.23,NW,325,4.0,9.0,78,0.00,,,0.06,,2013-11-24 11:22:00,
2013-11-24 05:43:00,34.0,28.0,30.22,NNE,18,2.0,8.0,77,0.00,,,0.06,,2013-11-24 11:43:00,
2013-11-24 05:53:00,34.0,28.0,30.23,NNW,344,1.0,9.0,78,0.00,,,0.06,,2013-11-24 11:53:00,
2013-11-24 06:12:00,34.0,28.0,30.24,West,274,1.0,12.0,77,0.00,,,0.06,,2013-11-24 12:12:00,
2013-11-24 06:21:00,33.0,26.0,30.24,North,355,6.0,11.0,75,0.00,,,0.06,,2013-11-24 12:21:00,
2013-11-24 06:42:00,33.0,26.0,30.24,NNW,340,2.0,7.0,74,0.00,,,0.06,,2013-11-24 12:42:00,
2013-11-24 06:52:00,33.0,25.0,30.24,NW,323,3.0,12.0,73,0.00,,,0.06,,2013-11-24 12:52:00,
2013-11-24 07:12:00,33.0,25.0,30.24,NW,306,3.0,11.0,72,0.00,,,0.05,,2013-11-24 13:12:00,
2013-11-24 07:22:00,33.0,24.0,30.23,North,11,3.0,11.0,70,0.00,,,0.05,,2013-11-24 13:22:00,
2013-11-24 07:42:00,33.0,25.0,30.24,NE,40,2.0,8.0,71,0.00,,,0.05,,2013-11-24 13:42:00,
2013-11-24 07:52:00,33.0,24.0,30.24,NNE,13,3.0,9.0,70,0.00,,,0.05,,2013-11-24 13:52:00,
2013-11-24 08:01:00,33.0,24.0,30.24,NNE,13,3.0,9.0,70,0.00,,,0.05,,2013-11-24 14:01:00,
2013-11-24 08:11:00,33.0,24.0,30.24,NNE,13,3.0,9.0,70,0.00,,,0.05,,2013-11-24 14:11:00,
2013-11-24 08:22:00,33.0,24.0,30.25,NE,38,3.0,9.0,69,0.00,,,0.05,,2013-11-24 14:22:00,
2013-11-24 08:42:00,33.0,24.0,30.25,NNE,22,3.0,13.0,68,0.00,,,0.05,,2013-11-24 14:42:00,
2013-11-24 08:52:00,33.0,23.0,30.24,NE,47,4.0,10.0,67,0.00,,,0.05,,2013-11-24 14:52:00,
2013-11-24 09:12:00,33.0,23.0,30.24,North,350,2.0,11.0,67,0.00,,,0.05,,2013-11-24 15:12:00,
2013-11-24 09:22:00,33.0,24.0,30.23,NE,38,1.0,9.0,68,0.00,,,0.05,,2013-11-24 15:22:00,
2013-11-24 09:44:00,33.0,23.0,30.23,NE,51,3.0,12.0,67,0.00,,,0.05,,2013-11-24 15:44:00,
2013-11-24 09:53:00,33.0,24.0,30.23,NNW,335,2.0,7.0,68,0.00,,,0.05,,2013-11-24 15:53:00,
2013-11-24 10:13:00,34.0,24.0,30.22,North,5,3.0,8.0,66,0.00,,,0.05,,2013-11-24 16:13:00,
2013-11-24 10:23:00,34.0,23.0,30.23,NNW,336,4.0,9.0,64,0.00,,,0.05,,2013-11-24 16:23:00,
2013-11-24 10:42:00,34.0,23.0,30.23,NNE,32,2.0,10.0,65,0.00,,,0.05,,2013-11-24 16:42:00,
2013-11-24 10:53:00,34.0,23.0,30.23,NNW,338,2.0,8.0,64,0.00,,,0.05,,2013-11-24 16:53:00,
2013-11-24 11:12:00,34.0,23.0,30.23,North,360,2.0,8.0,64,0.00,,,0.05,,2013-11-24 17:12:00,
2013-11-24 11:22:00,34.0,23.0,30.23,North,351,3.0,10.0,64,0.00,,,0.03,,2013-11-24 17:22:00,
2013-11-24 11:43:00,34.0,23.0,30.22,NW,320,3.0,9.0,65,0.00,,,0.03,,2013-11-24 17:43:00,
2013-11-24 11:52:00,34.0,23.0,30.22,NNW,335,2.0,11.0,65,0.00,,,0.03,,2013-11-24 17:52:00,
2013-11-24 12:12:00,34.0,23.0,30.22,North,355,3.0,7.0,64,0.00,,,0.03,,2013-11-24 18:12:00,
2013-11-24 12:21:00,33.0,24.0,30.21,NNW,332,2.0,7.0,70,0.00,,,0.01,,2013-11-24 18:21:00,
2013-11-24 12:42:00,33.0,26.0,30.20,NNW,333,1.0,6.0,76,0.01,,,0.02,,2013-11-24 18:42:00,
2013-11-24 12:52:00,33.0,26.0,30.18,NNW,348,2.0,6.0,76,0.01,,,0.02,,2013-11-24 18:52:00,
2013-11-24 13:12:00,33.0,26.0,30.16,NNE,22,2.0,11.0,76,0.01,,,0.02,,2013-11-24 19:12:00,
2013-11-24 13:22:00,33.0,26.0,30.15,NNW,343,3.0,8.0,75,0.01,,,0.02,,2013-11-24 19:22:00,
2013-11-24 13:42:00,33.0,26.0,30.14,NE,50,2.0,9.0,75,0.00,,,0.02,,2013-11-24 19:42:00,
2013-11-24 13:52:00,33.0,26.0,30.14,NW,320,2.0,9.0,75,0.00,,,0.02,,2013-11-24 19:52:00,
2013-11-24 14:11:00,33.0,26.0,30.13,NNW,335,1.0,8.0,76,0.00,,,0.02,,2013-11-24 20:11:00,
2013-11-24 14:22:00,34.0,27.0,30.13,NNW,339,2.0,7.0,75,0.00,,,0.02,,2013-11-24 20:22:00,
2013-11-24 14:42:00,34.0,27.0,30.13,NNW,345,3.0,7.0,74,0.00,,,0.02,,2013-11-24 20:42:00,
2013-11-24 14:52:00,34.0,26.0,30.13,NNE,19,1.0,6.0,73,0.00,,,0.02,,2013-11-24 20:52:00,
2013-11-24 15:11:00,34.0,26.0,30.12,NNW,331,3.0,7.0,72,0.00,,,0.02,,2013-11-24 21:11:00,
2013-11-24 15:22:00,34.0,26.0,30.11,NNE,20,1.0,8.0,73,0.00,,,0.02,,2013-11-24 21:22:00,
2013-11-24 15:43:00,34.0,26.0,30.12,NE,41,2.0,6.0,72,0.00,,,0.02,,2013-11-24 21:43:00,
2013-11-24 15:54:00,34.0,26.0,30.12,NNW,329,0.0,7.0,73,0.00,,,0.02,,2013-11-24 21:54:00,
2013-11-24 16:13:00,34.0,26.0,30.12,NNE,24,1.0,5.0,73,0.00,,,0.02,,2013-11-24 22:13:00,
2013-11-24 16:23:00,34.0,26.0,30.11,NNE,17,2.0,7.0,72,0.00,,,0.02,,2013-11-24 22:23:00,
2013-11-24 16:43:00,34.0,26.0,30.11,NNE,28,2.0,6.0,72,0.00,,,0.02,,2013-11-24 22:43:00,
2013-11-24 16:53:00,34.0,26.0,30.11,NNE,19,2.0,6.0,71,0.00,,,0.02,,2013-11-24 22:53:00,
2013-11-24 17:12:00,34.0,26.0,30.09,NNW,345,2.0,10.0,71,0.00,,,0.02,,2013-11-24 23:12:00,
2013-11-24 17:22:00,34.0,26.0,30.09,NE,55,3.0,6.0,71,0.00,,,0.02,,2013-11-24 23:22:00,
2013-11-24 17:42:00,34.0,26.0,30.09,NE,40,1.0,5.0,73,0.00,,,0.02,,2013-11-24 23:42:00,
2013-11-24 17:52:00,34.0,26.0,30.09,ENE,57,1.0,8.0,72,0.00,,,0.02,,2013-11-24 23:52:00,
2013-11-24 18:12:00,34.0,26.0,30.09,ENE,71,1.0,5.0,71,0.00,,,0.02,,2013-11-25 00:12:00,
2013-11-24 18:22:00,34.0,26.0,30.09,NNE,28,1.0,9.0,72,0.00,,,0.01,,2013-11-25 00:22:00,
2013-11-24 18:42:00,33.0,26.0,30.06,ENE,59,4.0,9.0,76,0.00,,,0.01,,2013-11-25 00:42:00,
2013-11-24 18:52:00,33.0,27.0,30.08,NNE,13,1.0,7.0,78,0.00,,,0.01,,2013-11-25 00:52:00,
2013-11-24 19:11:00,33.0,27.0,30.07,NE,46,3.0,6.0,77,0.00,,,0.01,,2013-11-25 01:11:00,
2013-11-24 19:22:00,34.0,27.0,30.09,NNE,14,0.0,6.0,76,0.00,,,0.01,,2013-11-25 01:22:00,
2013-11-24 19:42:00,34.0,28.0,30.09,ENE,70,1.0,4.0,77,0.00,,,0.01,,2013-11-25 01:42:00,
2013-11-24 19:52:00,34.0,28.0,30.09,East,96,0.0,4.0,77,0.00,,,0.01,,2013-11-25 01:52:00,
2013-11-24 20:12:00,34.0,28.0,30.08,East,83,1.0,3.0,78,0.00,,,0.01,,2013-11-25 02:12:00,
2013-11-24 20:22:00,34.0,28.0,30.06,ENE,72,0.0,5.0,78,0.00,,,0.01,,2013-11-25 02:22:00,
2013-11-24 20:42:00,34.0,28.0,30.06,East,79,0.0,3.0,79,0.00,,,0.01,,2013-11-25 02:42:00,
2013-11-24 20:52:00,34.0,28.0,30.06,East,87,0.0,6.0,77,0.00,,,0.01,,2013-11-25 02:52:00,
2013-11-24 21:11:00,34.0,28.0,30.05,ENE,76,2.0,6.0,77,0.00,,,0.01,,2013-11-25 03:11:00,
2013-11-24 21:22:00,34.0,27.0,30.05,East,84,2.0,6.0,76,0.00,,,0.01,,2013-11-25 03:22:00,
2013-11-24 21:43:00,34.0,27.0,30.04,East,80,2.0,5.0,76,0.00,,,0.01,,2013-11-25 03:43:00,
2013-11-24 21:53:00,34.0,28.0,30.03,ENE,64,1.0,5.0,77,0.00,,,0.01,,2013-11-25 03:53:00,
2013-11-24 22:13:00,34.0,27.0,30.04,ENE,65,1.0,4.0,76,0.00,,,0.01,,2013-11-25 04:13:00,
2013-11-24 22:23:00,34.0,27.0,30.04,ENE,65,1.0,4.0,76,0.00,,,0.01,,2013-11-25 04:23:00,
2013-11-24 22:43:00,34.0,27.0,30.05,ENE,58,0.0,3.0,75,0.00,,,0.01,,2013-11-25 04:43:00,
2013-11-24 22:53:00,34.0,27.0,30.04,ENE,78,1.0,4.0,75,0.00,,,0.01,,2013-11-25 04:53:00,
2013-11-24 23:12:00,34.0,27.0,30.05,ENE,78,0.0,2.0,75,0.00,,,0.01,,2013-11-25 05:12:00,
2013-11-24 23:22:00,34.0,27.0,30.05,ENE,78,0.0,1.0,75,0.00,,,0.01,,2013-11-25 05:22:00,
2013-11-24 23:43:00,34.0,27.0,30.04,ENE,78,0.0,2.0,74,0.00,,,0.01,,2013-11-25 05:43:00,
2013-11-24 23:52:00,34.0,27.0,30.04,ENE,78,0.0,2.0,74,0.00,,,0.01,,2013-11-25 05:52:00,